RH
18 19 18 16 18 18 18 18 28 49 53 65 64 54 50 45 42 50 72 64 61 52 52 54 52 55 47 34 26 17 17 19 16 11 7 5 3 2 1 2 1 1 2 1 1
18 18 18 17 19 24 22 34 58 62 70 71 69 68 52 49 50 59 65 69 68 63 65 51 47 36 34 33 25 18 16 15 12 10 6 3 2 2 1 1 1 1 1 1 1
19 24 21 28 26 41 51 87 93 93 79 88 82 75 60 53 61 62 69 71 72 69 47 38 32 29 28 34 28 19 17 15 12 8 5 3 2 2 1 1 1 1 1 1 1
23 30 32 43 41 49 67 100 92 84 84 83 80 81 72 62 67 70 74 63 57 48 46 44 33 32 31 43 29 23 17 16 12 8 4 3 2 1 1 1 1 1 1 1 1
52 45 59 54 59 79 87 80 95 95 100 100 100 92 79 70 64 68 84 80 81 71 49 41 30 27 34 27 20 21 19 17 11 6 4 2 2 1 1 1 1 1 1 2 1
81 73 74 80 81 79 81 91 100 100 100 91 81 66 63 64 64 80 82 97 89 74 68 46 32 25 21 22 24 20 17 12 11 5 4 2 1 1 1 1 2 1 1 2 2
89 88 78 76 89 98 100 100 100 98 84 71 62 69 61 67 78 80 95 93 87 89 62 42 31 24 21 29 21 16 14 13 12 5 4 2 1 2 1 2 2 2 2 2 2
89 98 95 90 98 100 100 100 100 100 100 74 54 60 60 73 74 92 100 92 92 72 58 45 32 29 36 27 16 16 15 15 13 6 4 2 2 2 2 2 2 2 2 2 2
92 95 100 99 100 100 100 100 100 84 75 80 79 72 64 65 84 86 95 98 86 69 64 56 44 36 39 39 26 18 18 14 15 7 4 3 2 2 2 2 2 2 2 2 2
100 100 100 100 100 100 86 100 100 100 91 83 82 92 60 64 91 92 91 86 83 68 68 61 51 42 30 42 29 23 17 14 12 8 5 3 2 2 2 2 2 2 2 2 2
100 100 100 100 100 100 95 100 100 100 100 68 75 97 87 88 88 100 85 65 49 52 66 63 60 42 33 29 26 17 20 15 14 9 5 3 2 2 2 2 2 2 2 2 3
100 100 100 100 100 99 100 99 72 90 100 76 98 100 97 77 81 94 94 74 68 59 64 59 53 40 30 28 24 19 17 15 13 10 6 4 2 2 2 2 2 2 2 2 3
100 100 100 100 100 100 100 100 78 76 100 100 100 98 100 100 84 94 94 100 89 66 52 39 46 38 42 45 34 25 17 14 13 9 6 4 3 3 2 2 3 2 3 3 4
100 100 100 100 100 100 100 100 100 100 100 100 100 100 100 100 94 95 95 100 100 62 50 58 41 51 56 40 33 24 17 16 14 9 6 4 3 3 2 3 3 3 3 4 4
100 100 100 100 100 100 100 100 100 100 100 100 100 100 100 100 100 96 93 100 100 62 51 55 52 55 60 39 26 23 19 19 14 8 6 5 3 3 2 3 3 3 4 6 5
100 100 100 100 100 100 100 100 99 100 100 100 100 100 100 100 97 83 86 100 76 62 61 68 64 67 60 45 31 20 17 20 14 9 5 5 3 3 2 3 4 4 5 6 7
98 100 100 100 100 100 100 100 100 94 100 100 100 100 90 98 93 85 100 90 75 90 68 70 82 75 67 49 34 24 18 19 15 10 7 4 3 3 2 3 4 5 6 7 8
100 100 100 100 100 100 100 100 99 100 100 100 100 100 100 100 86 99 100 100 100 84 81 72 83 73 57 41 27 25 18 16 20 10 8 5 3 3 3 3 4 6 7 9 10
100 100 100 100 100 100 100 100 100 100 100 100 95 95 100 93 100 100 97 100 98 85 82 91 85 64 55 40 29 21 20 16 20 11 7 5 3 3 3 3 4 6 9 11 14
100 100 100 100 100 100 100 100 100 100 100 100 97 92 100 97 95 99 100 99 100 89 85 92 77 70 52 39 28 22 21 17 22 12 8 6 4 3 3 3 4 7 10 15 16
97 98 100 100 100 100 100 100 100 99 100 100 100 100 95 82 98 100 99 90 98 88 83 89 83 67 53 39 28 24 22 17 28 12 9 6 4 3 4 3 4 7 10 14 17
39 70 100 100 100 100 100 100 100 100 100 100 97 85 85 72 98 100 100 100 89 90 84 88 83 66 51 43 29 26 24 16 26 16 8 7 5 3 4 3 4 6 10 15 19
98 100 100 100 100 100 100 100 100 100 96 88 96 89 96 100 100 100 100 99 94 90 92 85 77 68 66 46 34 31 24 17 22 22 9 7 5 4 4 4 4 4 9 15 18
100 100 100 100 100 100 100 100 100 100 100 100 100 100 100 100 100 100 96 92 96 90 83 81 69 77 72 45 42 34 23 19 20 22 11 7 5 4 3 4 3 4 7 12 15
100 100 100 100 100 100 100 100 100 100 100 100 100 100 100 100 100 94 96 90 100 92 86 83 70 90 59 49 49 33 23 20 20 24 12 8 5 5 3 4 4 4 5 11 14
100 100 100 100 100 100 100 100 100 100 100 100 100 100 100 100 96 99 100 100 97 99 85 79 89 87 52 56 48 28 26 22 20 22 13 6 5 4 4 4 4 4 5 8 16
100 100 100 100 100 100 100 100 100 100 100 100 100 100 100 100 100 100 100 100 100 96 78 82 100 71 51 57 41 31 30 21 19 23 13 7 7 4 4 4 5 4 4 6 13
Wind_Speed
50 49 52 52 47 47 47 43 41 40 40 36 38 42 45 50 55 58 60 63 66 68 73 77 78 83 87 93 102 107 112 118 126 116 99 80 74 73 64 66 61 61 55 53 51
50 49 48 46 44 42 44 42 38 38 36 38 41 45 51 53 57 58 62 65 68 70 77 80 83 88 94 99 106 111 116 122 124 123 91 74 68 63 64 51 48 43 46 40 43
50 46 45 41 41 36 37 35 37 39 40 44 46 50 53 56 57 60 64 68 70 75 81 85 90 94 99 105 108 114 118 130 140 106 85 74 67 53 46 40 34 34 36 36 46
50 47 45 39 39 39 37 35 39 41 44 48 51 53 55 57 58 63 66 68 71 79 85 90 94 99 104 107 113 116 126 131 141 100 89 70 64 48 37 28 26 29 33 42 52
45 42 40 40 38 37 38 38 41 44 46 49 50 54 57 59 62 65 67 71 76 79 87 94 99 102 105 110 115 121 128 133 131 92 78 66 53 40 31 21 19 20 29 45 56
47 45 42 40 39 39 41 41 42 44 44 47 50 54 59 62 66 68 72 75 77 82 89 97 103 107 110 112 118 124 129 132 116 95 72 58 47 34 27 15 13 17 28 41 58
51 50 48 43 40 38 39 41 44 43 49 53 56 58 61 64 67 74 75 77 80 84 91 100 104 108 112 117 120 124 133 132 118 87 65 54 41 34 23 9 13 20 31 42 54
54 53 51 47 44 43 44 43 46 45 46 54 58 61 64 67 69 70 74 78 80 87 93 98 103 108 113 121 125 129 130 135 114 86 60 51 41 29 17 6 14 24 34 37 47
58 56 53 52 48 47 47 47 40 52 53 58 63 64 67 69 71 72 75 76 82 89 94 99 103 110 117 122 124 128 131 134 114 90 64 53 36 25 15 5 16 30 35 36 43
61 60 59 56 53 53 52 53 55 54 58 62 63 65 67 70 70 74 77 80 84 89 94 97 105 113 118 117 122 126 131 128 100 86 61 48 35 22 11 9 18 31 35 37 44
61 63 59 58 57 57 57 57 58 61 61 64 62 67 66 68 70 76 78 80 86 88 94 101 106 111 114 117 124 125 136 124 101 85 61 47 30 17 8 11 20 31 36 41 52
64 61 61 59 57 64 61 62 62 62 62 64 69 65 64 67 72 78 77 80 86 90 94 98 104 111 114 120 123 129 133 116 100 82 60 42 26 16 7 15 25 34 39 49 60
69 64 67 63 65 65 63 64 64 65 64 64 62 64 65 68 76 81 80 80 83 85 91 100 107 109 115 121 126 133 132 115 97 77 55 42 22 14 9 19 29 38 45 60 73
72 69 65 62 66 68 66 65 65 66 68 66 62 65 67 73 74 80 80 78 82 88 93 99 105 108 113 120 124 129 129 111 90 69 54 39 20 13 12 22 32 43 55 70 83
78 72 71 67 65 64 68 68 67 66 68 65 67 66 69 73 76 78 81 81 81 88 93 99 105 109 112 116 124 131 124 117 80 66 50 39 17 11 15 26 35 47 64 79 92
82 77 69 70 67 66 66 68 66 69 68 66 65 64 69 71 75 78 81 80 82 88 92 98 103 106 110 116 123 121 119 111 79 63 51 37 15 9 17 29 39 55 75 90 98
82 77 75 73 73 70 71 70 67 67 67 64 64 67 71 73 76 77 80 81 85 88 91 98 99 102 108 114 119 124 119 106 87 60 54 35 15 9 19 33 47 63 83 97 106
85 79 77 75 73 71 72 75 72 71 71 65 67 70 72 70 73 76 80 78 85 88 94 97 97 101 108 115 121 124 110 101 91 59 49 33 16 10 21 38 54 72 91 103 113
87 83 81 78 76 72 72 72 74 78 71 74 71 71 74 75 70 74 77 79 85 88 91 90 93 100 107 113 119 120 106 94 92 60 46 31 14 11 23 41 59 78 92 106 115
102 91 83 78 77 75 75 74 75 73 74 74 73 80 73 68 69 72 74 83 86 89 90 86 95 97 104 112 117 115 104 94 100 64 46 31 14 11 26 43 63 85 98 108 116
95 102 88 83 83 81 81 74 75 74 75 72 71 66 69 70 67 74 78 83 87 86 85 85 91 95 100 108 113 112 104 90 98 67 48 32 19 13 28 45 64 90 101 108 118
77 86 95 102 91 87 87 78 74 73 75 72 72 75 75 72 74 78 81 84 85 84 83 84 85 91 96 101 111 106 103 87 88 77 48 34 19 16 29 46 65 91 101 109 121
68 63 68 76 83 89 85 79 78 74 77 71 70 71 71 70 76 76 80 80 79 80 80 83 83 89 92 100 109 103 103 89 85 78 54 39 19 16 27 43 65 84 101 108 124
64 68 66 67 69 76 78 75 74 75 69 71 69 71 70 72 74 74 74 78 77 80 83 82 83 85 91 101 103 105 99 91 76 76 59 40 23 15 27 42 62 78 101 111 124
72 70 64 65 67 69 69 71 72 68 70 69 69 68 70 71 68 72 71 75 74 77 78 79 82 83 93 97 101 104 96 92 82 80 65 45 24 16 26 39 59 77 90 112 126
71 68 67 67 69 69 65 64 67 71 69 68 69 67 64 63 64 66 68 70 75 73 77 76 76 84 91 94 99 97 95 93 82 76 62 47 31 16 25 39 55 77 84 106 123
72 71 69 65 69 63 64 66 69 70 65 64 64 60 58 60 61 64 60 71 71 73 75 74 77 83 91 93 96 95 97 92 85 71 59 50 32 22 24 38 50 71 86 95 120
Wind_Direction
292 295 297 301 301 303 305 304 309 311 317 316 320 322 323 323 325 326 325 325 325 324 325 326 326 326 326 328 329 329 330 329 333 331 326 318 313 307 294 283 279 266 258 245 230
291 294 298 299 298 301 302 305 312 315 316 315 319 321 322 324 325 325 325 324 324 324 324 326 328 326 326 330 329 333 332 329 334 333 328 320 312 303 292 282 272 267 248 234 215
289 290 293 299 299 299 304 308 310 312 313 317 318 318 320 325 324 325 326 325 325 324 324 326 327 326 328 330 331 331 331 332 335 334 329 322 315 304 292 282 270 250 232 213 199
286 288 291 295 297 297 300 303 307 310 311 312 314 316 318 323 323 325 326 326 326 326 327 327 329 328 329 330 331 333 333 334 337 334 331 327 316 313 294 277 262 236 217 198 191
285 286 288 290 294 294 296 300 307 311 313 313 313 314 317 319 321 324 324 323 327 327 327 328 329 329 329 331 333 333 335 337 340 337 330 328 319 307 293 277 250 219 203 195 189
283 284 286 288 291 293 296 300 309 308 312 315 315 317 318 318 321 322 324 323 325 327 327 327 328 329 330 332 333 337 338 340 346 337 334 328 319 305 294 280 233 211 200 198 189
281 284 287 289 290 294 297 305 304 307 310 311 313 316 316 318 320 321 322 322 324 325 325 326 329 330 332 332 334 339 339 341 344 338 338 330 319 305 299 274 216 196 193 197 195
279 281 285 286 288 293 296 299 299 304 311 308 310 312 314 318 319 321 322 323 324 325 327 329 329 331 333 334 336 338 339 342 344 342 342 336 323 312 300 261 203 190 189 191 190
275 278 279 283 284 285 288 293 298 297 303 306 310 312 315 317 319 320 321 323 325 327 328 328 329 330 334 335 336 337 339 345 347 343 342 338 328 309 295 227 196 189 187 179 179
274 276 278 280 284 285 286 293 295 301 303 304 307 312 313 316 319 321 322 323 324 324 326 327 329 332 333 334 334 336 341 346 348 342 341 340 328 309 281 199 192 189 180 170 170
273 273 276 278 281 281 286 289 292 296 302 304 307 311 307 311 316 319 320 322 323 324 325 327 330 331 332 333 335 338 339 347 349 343 342 340 330 307 255 192 183 186 174 167 165
268 272 272 276 279 280 283 285 289 293 300 302 309 310 308 310 312 318 319 322 323 325 328 329 330 331 333 334 336 339 342 346 346 344 340 340 328 301 239 181 178 179 171 167 161
263 266 271 272 275 277 281 282 287 291 296 296 306 307 302 302 307 315 319 323 327 328 328 330 330 332 333 334 338 337 341 346 346 344 340 340 326 293 201 176 175 173 171 165 161
259 264 266 271 274 278 281 285 288 288 295 300 301 305 296 298 307 314 317 321 324 324 326 329 329 333 332 336 337 336 341 347 344 343 341 341 322 287 193 171 175 171 166 163 162
261 261 266 265 274 273 279 283 286 288 291 295 299 301 296 300 306 312 316 317 320 324 327 328 331 332 332 334 334 338 342 343 347 344 343 340 320 274 186 172 173 168 163 164 162
262 262 264 267 269 274 278 282 284 287 291 295 297 298 302 303 306 310 312 314 316 323 327 327 330 329 331 334 335 337 341 345 349 346 344 338 326 261 189 171 170 170 166 164 165
260 261 265 267 267 272 275 278 282 285 289 292 292 297 304 305 307 308 311 313 318 325 326 327 327 329 332 333 335 338 342 346 351 349 343 338 330 243 193 172 169 173 169 167 167
255 258 262 265 266 269 275 278 280 284 286 287 289 295 300 303 305 308 311 313 320 325 325 326 326 328 330 331 332 336 339 347 352 350 342 338 327 237 196 174 171 173 171 168 170
255 256 258 260 264 265 271 274 280 282 281 285 286 291 297 300 303 307 309 312 317 321 324 325 324 328 329 331 333 337 340 348 353 349 344 336 322 230 203 174 175 174 174 171 172
251 255 254 257 261 267 271 272 278 278 279 284 287 290 294 300 303 307 307 311 315 320 323 324 325 329 329 330 333 336 339 348 352 350 348 337 310 221 203 179 179 175 174 172 173
255 252 251 254 258 262 269 272 275 278 279 282 287 289 293 298 302 304 308 310 314 318 321 324 327 329 330 332 333 335 337 349 356 347 352 345 309 224 197 187 182 179 177 177 175
254 256 254 255 257 258 266 270 273 275 277 281 285 287 292 296 297 303 305 308 314 319 321 324 328 328 330 331 331 333 337 349 359 344 348 344 320 247 196 194 182 185 181 179 178
246 249 253 254 258 257 262 264 269 270 276 280 280 286 291 293 298 302 303 309 316 318 321 326 326 328 328 330 331 332 336 346 357 343 343 346 323 257 205 197 184 188 185 182 180
236 239 242 249 252 256 258 260 264 269 273 279 280 285 289 293 295 300 305 309 312 317 321 325 324 327 327 329 330 332 335 343 356 344 339 344 327 271 218 197 193 188 190 185 184
232 238 242 243 246 250 255 257 259 264 270 275 281 284 287 291 294 300 307 309 312 317 322 322 325 325 326 329 330 331 334 341 353 345 335 338 326 279 221 200 198 189 194 190 187
237 234 238 240 243 247 250 253 258 263 268 273 279 285 290 292 298 304 306 309 311 318 321 322 323 324 326 328 330 331 334 339 351 343 332 337 325 282 222 208 198 195 194 194 192
238 233 235 236 238 243 250 256 261 264 267 271 277 280 289 295 301 302 303 308 312 315 319 320 320 323 325 327 329 330 332 338 346 342 330 334 328 292 228 209 201 199 195 196 193